This demonstration page uses our WeatherBlox Daily Observations layout. Learn more.

Left ArrowRight Arrow

Hourly Observations for March 31, 2019

Temp ( °F °C ) Dew Point ( °F °C ) Humidity (%) Winds ( mph kmh ) Pressure ( in mb ) Visibility ( mi km ) Precip ( " mm )
12:57 am 00:57 Clear 26 -3.3 22 -5.6 84 84 NW 5 7 30.48 1032 10 16 0.00 0.00
1:57 am 01:57 Clear 25 -3.9 21 -6.1 85 85 NW 6 9 30.48 1032 10 16 0.00 0.00
2:57 am 02:57 Clear 25 -3.9 21 -6.1 85 85 NNW 3 6 30.48 1032 10 16 0.00 0.00
3:57 am 03:57 Clear 23 -5 21 -6.1 92 92 W 5 7 30.49 1032 10 16 0.00 0.00
4:57 am 04:57 Clear 23 -5 20 -6.7 88 88 W 3 6 30.48 1032 10 16 0.00 0.00
5:57 am 05:57 Clear 23 -5 20 -6.7 88 88 Calm 30.48 1032 10 16 0.00 0.00
6:57 am 06:57 Clear 21 -6.1 19 -7.2 92 92 Calm 30.49 1033 10 16 0.00 0.00
7:57 am 07:57 Sunny 23 -5 21 -6.1 92 92 Calm 30.49 1033 10 16 0.00 0.00
8:57 am 08:57 Sunny 29 -1.7 25 -3.9 85 85 SSW 6 9 30.48 1032 10 16 0.00 0.00
9:57 am 09:57 Sunny 33 0.6 21 -6.1 61 61 SSW 13 20 30.47 1032 10 16 0.00 0.00
10:57 am 10:57 Sunny 37 2.8 24 -4.4 59 59 SSW 10 17 30.45 1031 10 16 0.00 0.00
11:57 am 11:57 Sunny 41 5 24 -4.4 51 51 SW 12 19 30.43 1030 10 16 0.00 0.00
12:57 pm 12:57 Sunny 44 6.7 23 -5 43 43 WSW 14 22 30.40 1030 10 16 0.00 0.00
1:57 pm 13:57 Sunny 47 8.3 21 -6.1 36 36 WSW 16 26 30.37 1028 10 16 0.00 0.00
2:57 pm 14:57 Sunny 49 9.4 22 -5.6 35 35 WSW 17 28 30.32 1027 10 16 0.00 0.00
3:57 pm 15:57 Sunny 52 11.1 23 -5 32 32 SW 15 24 30.29 1026 10 16 0.00 0.00
4:57 pm 16:57 Sunny 53 11.7 22 -5.6 30 30 SW 12 19 30.26 1025 10 16 0.00 0.00
5:57 pm 17:57 Sunny 53 11.7 24 -4.4 32 32 SW 15 24 30.24 1024 10 16 0.00 0.00
6:57 pm 18:57 Sunny 53 11.7 24 -4.4 32 32 SW 13 20 30.23 1024 10 16 0.00 0.00
7:57 pm 19:57 Sunny 48 8.9 25 -3.9 41 41 SSW 9 15 30.23 1024 10 16 0.00 0.00
8:57 pm 20:57 Clear 41 5 28 -2.2 60 60 S 10 17 30.23 1024 10 16 0.00 0.00
9:57 pm 21:57 Clear 40 4.4 27 -2.8 60 60 SSW 9 15 30.23 1024 10 16 0.00 0.00
10:57 pm 22:57 Clear 40 4.4 25 -3.9 55 55 SSW 12 19 30.23 1024 10 16 0.00 0.00
11:57 pm 23:57 Clear 40 4.4 24 -4.4 53 53 SW 14 22 30.21 1023 10 16 0.00 0.00

Powered by AerisWeather